Warning: Javascript must be enabled to use all the features on this page!


Page Loading - Please Wait...

Click to hideNews Bulletins

Peak Streamflow for the Nation

USGS 05275000 ELK RIVER NEAR BIG LAKE, MN

Sherburne County, Minnesota
Hydrologic Unit Code 07010203
Latitude  45°20'02", Longitude  93°40'00" NAD27
Drainage area 559  square miles
Gage datum 899.60 feet above NGVD29
Output formats
Table
Graph
Tab-separated file
peakfq (watstore) format
Reselect output format
Water
Year
Date Gage
Height
(feet)
Stream-
flow
(cfs)
1911 1911-05-23 1.15 264
1912 1912-05-07 10.10 5,180
1913 1913-05-24 1.702 426
1914 1914-07-06 3.30 925
1915 1915-06-29   4321,2
1916 1916-04-05 8.60 4,130
1917 1917-04-06 7.05 2,930
1932 1932-04-11 1.96 436
1933 1933-05-31 1.132 178
1934 1934-09-26 1.74 144
1935 1935-03-21 2.802 690
1936 1936-03-29 6.921 2,000
1937 1937-04-13 3.60 1,160
1938 1938-05-12 6.90 2,740
1939 1939-03-28 7.15 2,920
1940 1940-04-10 4.092 1,240
1941 1941-04-09 4.46 1,450
1942 1942-05-19 4.78 1,560
1943 1943-04-04 8.04 3,500
1944 1944-05-08 5.15 1,740
1945 1945-03-20 7.48 3,150
1946 1946-03-22 5.60 1,960
1947 1947-04-16 3.422 950
1948 1948-03-30 7.05 2,800
1949 1949-04-01 5.22 1,750
1950 1950-05-09 6.882 2,730
1951 1951-04-11 7.68 3,280
1952 1952-04-10 10.36 5,330
1953 1953-03-27 4.19 1,320
1954 1954-05-01 7.45 3,120
1955 1955-04-06 4.52 1,470
1956 1956-04-08 7.43 3,100
1957 1957-06-27 6.50 2,500
1958 1958-04-12 2.142 538
1959 1959-05-10 1.622 330
1960 1960-04-03 4.72 1,580
1961 1961-05-19 2.01 486
1962 1962-05-28 5.70 2,040
1963 1963-06-11 3.252 982
1964 1964-05-13 4.80 1,620
1965 1965-04-16 10.86 7,360
1966 1966-03-15 5.802 2,090
1967 1967-04-04 6.72 2,630
1968 1968-03-18 2.64 633
1969 1969-04-10 10.08 5,980
1970 1970-04-28 4.01 1,200
1971 1971-04-12 4.97 1,630
1972 1972-03-26 6.101 2,140
1973 1973-03-18 6.44 2,440
1974 1974-06-14 2.312 599
1975 1975-04-23 7.19 2,910
1976 1976-04-01 5.66 1,980
1977 1977-03-20 2.852 779
1978 1978-07-11 5.81 2,060
1979 1979-05-15 6.86 2,740
1980 1980-04-07 3.222 912
1981 1981-06-20 2.60 686
1982 1982-04-07 6.33 2,380
1983 1983-07-03 7.00 2,750
1984 1984-06-16 9.87 4,980
1985 1985-04-28 6.36 2,520
1986 1986-05-14 7.38 2,990
1987 1987-03-27 2.30 590
1991 1991-05-10 5.62 2,070
1992 1992-03-10 5.05 1,790
1993 1993-06-30 2.97 716
1994 1994-05-06 3.98 1,130
1995 1995-03-18   1,7301
1996 1996-04-20 3.95 1,180
1997 1997-04-07 9.02 4,070
1998 1998-04-08 4.09 1,260
1999 1999-05-22 3.49 921
2000 2000-03-03 1.902 4262
2001 2001-04-27 9.43 4,490
2002 2002-07-17 6.25 2,240
2003 2003-04-24 4.94 1,620
2004 2004-06-06 3.95 1,130
2005 2005-06-14 4.19 1,250
2006 2005-10-13 5.55 1,720
2007 2007-04-05 3.81 1,110
2008 2008-06-17 4.17 1,200
2009 2009-03-28 7.172 2,810
2010 2010-03-18 4.392 1,370
2011 2011-04-10 6.18 2,260
2012 2012-06-03 4.65 1,570
2013 2013-06-30 4.85 1,620
2014 2014-06-07 6.24 2,290
2015 2015-05-23 3.262 923
2016 2016-07-24 4.28 1,320
2017 2017-05-26 4.20 1,280
2018 2017-10-09 5.13 1,680
2019 2019-03-29 6.522 2,440
2020 2020-04-04 5.77 2,010
?
  Peak Gage-Height Qualification Codes.
?
  Peak Streamflow Qualification Codes.